CW9683 Weather Reports


time (UTC)temp
C
wind
direction
speed
KPH
gust
KPH
rain 1hr
cm
rain 24hr
cm
rain mn
cm
humidity
%
barometer
mb
20260507222306 16 292 4.8 16.1 0.00 0.20 0.13 33 1002.4
20260507221804 16 275 3.2 9.7 0.00 0.20 0.13 36 1002.4
20260507220804 16 222 3.2 16.1 0.00 0.20 0.13 35 1002.3
20260507214804 17 234 6.4 12.9 0.00 0.20 0.13 32 1002.2
20260507214304 17 265 6.4 14.5 0.00 0.20 0.13 35 1002.2
20260507212307 17 275 4.8 14.5 0.00 0.20 0.13 33 1002.0
20260507211304 17 296 8.0 11.3 0.00 0.20 0.13 34 1001.9
20260507210804 17 326 8.0 14.5 0.00 0.20 0.13 35 1001.9
20260507210304 17 309 6.4 16.1 0.00 0.20 0.13 34 1001.9
20260507203304 18 253 8.0 12.9 0.00 0.23 0.13 32 1001.9
20260507202803 18 256 6.4 16.1 0.00 0.25 0.13 33 1002.0
20260507202306 17 163 4.8 16.1 0.00 0.25 0.13 35 1001.9
20260507201804 18 273 3.2 12.9 0.00 0.28 0.13 31 1001.9
20260507201304 18 246 4.8 14.5 0.00 0.28 0.13 33 1001.9
20260507200803 18 262 6.4 16.1 0.00 0.28 0.13 33 1002.0
20260507195305 18 342 8.0 14.5 0.00 0.28 0.13 32 1002.1
20260507194304 18 291 6.4 14.5 0.00 0.30 0.13 31 1002.3
20260507193304 19 265 4.8 11.3 0.00 0.33 0.13 31 1002.2
20260507191304 18 288 8.0 19.3 0.00 0.36 0.13 31 1002.5
20260507190804 18 320 3.2 16.1 0.00 0.36 0.13 34 1002.5
20260507185305 19 288 4.8 14.5 0.00 0.36 0.13 35 1002.5
20260507184803 18 302 4.8 16.1 0.00 0.36 0.13 32 1002.6
20260507183804 18 311 11.3 20.9 0.00 0.36 0.13 32 1002.6
20260507182803 19 209 6.4 14.5 0.00 0.36 0.13 32 1002.7
20260507182306 19 272 6.4 12.9 0.00 0.36 0.13 32 1002.8
20260507174304 18 302 4.8 9.7 0.00 0.36 0.13 40 1002.9
20260507173805 18 228 4.8 20.9 0.00 0.36 0.13 37 1002.8
20260507173305 18 254 8.0 16.1 0.00 0.36 0.13 38 1003.0
20260507172805 18 292 9.7 16.1 0.00 0.36 0.13 38 1002.9
20260507172307 17 306 4.8 12.9 0.00 0.36 0.13 42 1002.9
20260507171804 17 310 8.0 16.1 0.00 0.36 0.13 42 1003.0
20260507170805 17 283 9.7 19.3 0.00 0.36 0.13 42 1003.1
20260507165306 17 283 6.4 14.5 0.00 0.36 0.13 47 1003.2
20260507162805 17 289 4.8 12.9 0.00 0.36 0.13 49 1003.4
20260507162307 17 250 4.8 14.5 0.00 0.36 0.13 51 1003.5
20260507153805 16 242 4.8 11.3 0.00 0.36 0.13 53 1003.9
20260507153304 16 246 1.6 11.3 0.00 0.36 0.13 54 1004.0
20260507152805 16 204 3.2 12.9 0.00 0.36 0.13 56 1004.0
20260507151804 16 349 3.2 12.9 0.00 0.36 0.13 55 1004.1
20260507151304 16 276 4.8 9.7 0.00 0.36 0.13 56 1004.2
20260507145805 16 282 3.2 9.7 0.00 0.36 0.13 56 1004.3
20260507145307 16 265 4.8 12.9 0.00 0.36 0.13 56 1004.4
20260507144304 16 199 3.2 8.0 0.00 0.36 0.13 51 1004.5
20260507142804 15 292 4.8 11.3 0.00 0.36 0.13 53 1004.5
20260507140805 15 294 3.2 9.7 0.00 0.36 0.13 57 1004.5
20260507140304 15 309 4.8 11.3 0.00 0.36 0.13 54 1004.6
20260507135805 15 275 3.2 4.8 0.00 0.36 0.13 59 1004.4
20260507135306 15 279 4.8 9.7 0.00 0.36 0.13 60 1004.5
20260507134805 15 357 4.8 12.9 0.00 0.36 0.13 57 1004.5
20260507134305 15 346 6.4 16.1 0.00 0.36 0.13 59 1004.4
20260507133305 14 287 4.8 9.7 0.00 0.36 0.13 60 1004.6
20260507132804 13 295 3.2 8.0 0.00 0.36 0.13 63 1004.7
20260507130305 13 280 3.2 9.7 0.00 0.36 0.13 69 1004.8
20260507125804 12 316 6.4 12.9 0.00 0.36 0.13 67 1004.9
20260507125306 12 253 8.0 14.5 0.00 0.36 0.13 70 1005.0
20260507124305 12 289 4.8 12.9 0.00 0.36 0.13 73 1004.9
20260507123305 11 264 3.2 9.7 0.00 0.36 0.13 74 1004.9
20260507122804 11 257 4.8 9.7 0.00 0.36 0.13 78 1004.8
20260507121805 11 238 3.2 8.0 0.00 0.36 0.13 80 1005.0
20260507121305 11 263 4.8 8.0 0.00 0.36 0.13 80 1004.9
20260507115804 10 283 1.6 4.8 0.00 0.36 0.13 83 1004.9
20260507114304 10 272 3.2 9.7 0.00 0.36 0.13 84 1004.7
20260507113305 10 281 1.6 4.8 0.00 0.36 0.13 86 1004.8
20260507112804 10 273 1.6 4.8 0.00 0.36 0.13 86 1004.8
20260507111305 10 250 1.6 3.2 0.03 0.36 0.13 89 1004.7
20260507110805 10 233 1.6 3.2 0.03 0.36 0.13 90 1004.5
20260507105805 9 225 0.0 1.6 0.03 0.36 0.13 90 1004.8
20260507105306 9 225 0.0 1.6 0.03 0.36 0.13 90 1004.9
20260507104805 9 225 0.0 1.6 0.03 0.36 0.13 90 1004.9
20260507104304 9 225 0.0 3.2 0.03 0.36 0.13 90 1004.9
20260507103805 9 254 1.6 3.2 0.03 0.36 0.13 91 1004.6
20260507103305 9 292 0.0 1.6 0.03 0.36 0.13 90 1004.3
20260507102804 9 294 0.0 3.2 0.03 0.36 0.13 89 1004.2
20260507102307 9 294 1.6 3.2 0.05 0.36 0.13 89 1004.2
20260507101304 9 282 1.6 4.8 0.05 0.33 0.10 89 1004.2
20260507095805 9 273 1.6 3.2 0.05 0.33 0.10 88 1003.9
20260507094804 10 277 1.6 4.8 0.05 0.33 0.10 89 1004.1
20260507094304 10 281 1.6 4.8 0.05 0.33 0.10 89 1003.9
20260507093805 10 274 0.0 3.2 0.05 0.33 0.10 89 1004.2
20260507091804 10 256 3.2 4.8 0.00 0.28 0.05 87 1004.1
20260507085804 11 288 1.6 4.8 0.00 0.28 0.05 87 1004.3
20260507082804 11 286 3.2 4.8 0.05 0.28 0.05 91 1003.8
20260507081804 11 332 0.0 3.2 0.05 0.28 0.05 90 1003.6
20260507081304 11 332 1.6 1.6 0.05 0.28 0.05 90 1003.6
20260507080804 11 333 0.0 3.2 0.05 0.28 0.05 89 1003.8
20260507074804 12 274 3.2 9.7 0.03 0.25 0.03 85 1003.7
20260507073304 12 255 3.2 4.8 0.00 0.23 0.00 83 1003.6
20260507071305 12 257 1.6 4.8 0.00 0.23 0.00 83 1003.2
20260507070304 12 294 1.6 3.2 0.00 0.23 0.00 83 1003.3
20260507065804 12 296 0.0 3.2 0.00 0.23 0.00 82 1003.0
20260507065306 12 290 3.2 8.0 0.00 0.23 0.00 82 1003.1
20260507064804 12 277 1.6 9.7 0.00 0.23 0.00 82 1003.1
20260507062804 12 292 3.2 11.3 0.00 0.23 0.00 83 1003.2
20260507061804 12 287 3.2 4.8 0.00 0.23 0.00 84 1002.9
20260507061304 12 292 4.8 11.3 0.00 0.23 0.00 83 1003.0
20260507060805 13 250 4.8 11.3 0.00 0.23 0.00 83 1003.1
20260507060305 13 281 1.6 14.5 0.00 0.23 0.00 83 1003.0
20260507055804 13 287 3.2 8.0 0.00 0.23 0.00 85 1003.2
20260507054805 13 244 3.2 8.0 0.00 0.23 0.00 86 1003.3
20260507053804 13 270 3.2 4.8 0.00 0.23 0.00 87 1003.5
20260507052805 13 253 3.2 8.0 0.00 0.23 0.00 88 1003.3
20260507051804 13 262 4.8 9.7 0.00 0.23 0.00 88 1003.2
20260507050804 13 298 4.8 4.8 0.00 0.23 0.00 88 1003.1
20260507044804 14 267 1.6 4.8 0.00 0.23 0.00 89 1003.3
20260507044305 14 288 3.2 4.8 0.00 0.23 0.00 89 1003.2
20260507043304 15 269 8.0 12.9 0.00 0.23 0.00 91 1003.0
20260507041804 15 178 0.0 3.2 0.00 0.23 0.00 93 1003.1
20260507041304 15 212 0.0 4.8 0.00 0.23 0.00 93 1003.1
20260507040845 15 150 1.6 4.8 0.00 0.23 0.00 93 1003.1
20260507040304 15 193 1.6 4.8 0.00 0.23 0.00 92 1003.3
20260507035804 15 179 1.6 4.8 0.00 0.23 0.23 92 1003.1
20260507035306 15 147 0.0 1.6 0.00 0.23 0.23 92 1003.1
20260507034804 15 161 1.6 4.8 0.00 0.23 0.23 92 1002.9
20260507034305 15 177 3.2 4.8 0.00 0.23 0.23 92 1002.9
20260507033304 16 220 4.8 12.9 0.00 0.23 0.23 93 1003.0
20260507031804 16 271 3.2 11.3 0.00 0.23 0.23 91 1002.7
20260507030304 16 170 3.2 12.9 0.00 0.23 0.23 91 1002.3
20260507025804 16 154 3.2 4.8 0.00 0.23 0.23 91 1002.2
20260507025306 16 210 3.2 8.0 0.00 0.23 0.23 91 1002.3
20260507024805 16 170 3.2 14.5 0.00 0.23 0.23 91 1002.4
20260507023304 15 161 3.2 9.7 0.00 0.23 0.23 91 1002.6
20260507020305 15 143 3.2 8.0 0.00 0.23 0.23 92 1002.5
20260507015306 15 159 4.8 12.9 0.00 0.23 0.23 92 1002.6
20260507014804 15 172 8.0 14.5 0.00 0.23 0.23 92 1002.6
20260507011804 15 152 9.7 19.3 0.00 0.23 0.23 91 1002.7
20260507010304 15 174 4.8 14.5 0.00 0.23 0.23 91 1002.9
20260507005804 15 158 4.8 19.3 0.00 0.23 0.23 91 1002.9
20260507003805 15 161 8.0 16.1 0.03 0.23 0.23 91 1002.7
20260507002804 15 151 4.8 19.3 0.03 0.23 0.23 91 1002.8
20260507001804 15 168 8.0 19.3 0.05 0.23 0.23 91 1002.7
20260507001304 15 152 8.0 19.3 0.08 0.23 0.23 92 1002.6
20260507000306 15 185 8.0 16.1 0.08 0.23 0.23 91 1002.5
20260506235306 16 192 6.4 12.9 0.05 0.20 0.20 91 1002.5
20260506234804 16 152 8.0 16.1 0.05 0.20 0.20 91 1002.5
20260506231804 16 165 8.0 19.3 0.03 0.18 0.18 89 1002.5
20260506231304 16 148 8.0 22.5 0.00 0.15 0.15 89 1002.5
20260506225804 16 151 9.7 27.4 0.00 0.15 0.15 90 1002.6
20260506224804 16 140 6.4 14.5 0.00 0.15 0.15 90 1002.6
20260506224304 16 162 11.3 22.5 0.00 0.15 0.15 90 1002.7